Simultaneous Nadir Overpasses (SNOs) Predictions

Prediction of SNOs between GOES-15 and METOP-B Satellite Orbit:

Table of predicted SNOs for the next 14.0 days since TLE Epoch: 10/1/2022
Index Date Time (GOES-15) GOES-15 Lat,Lon METOP-B Lat,Lon Distance(km) Time Diff (sec)
1 10/02/2022 06:05:24 0.28,-128.14 0.20,-128.57 47.94 80
2 10/04/2022 18:03:38 -0.28,-128.21 -0.27,-128.13 8.35 80
3 10/07/2022 05:59:22 0.28,-128.23 0.39,-127.74 55.90 80
4 10/08/2022 18:18:15 -0.29,-128.27 0.59,-132.31 460.39 80
5 10/09/2022 18:00:16 -0.29,-128.29 -0.47,-127.31 110.98 80
6 10/11/2022 06:19:18 0.30,-128.31 -0.51,-131.91 411.11 80
7 10/12/2022 05:56:00 0.29,-128.32 0.61,-126.92 159.23 80
8 10/13/2022 18:14:52 -0.29,-128.34 0.42,-131.48 358.46 80
9 10/14/2022 17:56:53 -0.28,-128.35 -0.70,-126.49 212.24 80
